This demonstration page uses our WeatherBlox Daily Observations layout. Learn more.

40.92945, -100.16068

Hourly Observations for April 23, 2017

Temp ( °F °C ) Dew Point ( °F °C ) Humidity (%) Winds ( mph kmh ) Pressure ( in mb ) Visibility ( mi km ) Precip ( " mm )
12:15 am 00:15 Clear 44 6.5 29 -1.8 56 56 S 5 7 30.24 1024 10 16.0934 0 0
12:35 am 00:35 Clear 45 7.1 28 -2.4 51 51 S 5 7 30.24 1024 10 16.0934 0 0
12:55 am 00:55 Clear 46 7.5 28 -2.5 49 49 S 3 6 30.24 1024 10 16.0934 0 0
1:15 am 01:15 Clear 41 4.9 28 -2.3 60 60 S 5 7 30.27 1025 10 16.0934 0 0
1:35 am 01:35 Clear 40 4.7 28 -2.3 61 61 SSE 5 7 30.27 1025 10 16.0934 0 0
1:55 am 01:55 Clear 37 3 26 -3.1 65 65 Calm 30.27 1025 10 16.0934 0 0
2:15 am 02:15 Clear 40 4.4 27 -2.7 60 60 S 3 6 30.24 1024 10 16.0934 0 0
2:35 am 02:35 Clear 39 3.9 27 -3 61 61 S 6 9 30.24 1024 10 16.0934 0 0
2:55 am 02:55 Clear 38 3.4 27 -2.9 64 64 S 3 6 30.24 1024 10 16.0934 0 0
3:15 am 03:15 Clear 40 4.5 27 -3 59 59 WSW 3 6 30.24 1024 10 16.0934 0 0
3:35 am 03:35 Clear 35 1.9 24 -4.3 64 64 Calm 30.27 1025 10 16.0934 0 0
3:55 am 03:55 Clear 32 -0.1 26 -3.6 78 78 Calm 30.27 1025 10 16.0934 0 0
4:15 am 04:15 Clear 31 -0.5 25 -3.9 78 78 Calm 30.27 1025 10 16.0934 0 0
4:35 am 04:35 Clear 30 -0.9 25 -4.1 79 79 Calm 30.3 1026 10 16.0934 0 0
4:55 am 04:55 Clear 31 -0.3 25 -3.9 77 77 Calm 30.27 1025 10 16.0934 0 0
5:15 am 05:15 Clear 30 -1 24 -4.6 77 77 Calm 30.3 1026 10 16.0934 0 0
5:35 am 05:35 Clear 30 -1.1 24 -4.4 79 79 Calm 30.24 1024 10 16.0934 0 0
5:55 am 05:55 Clear 32 -0.2 26 -3.6 78 78 S 3 6 30.24 1024 10 16.0934 0 0
6:15 am 06:15 Clear 37 2.7 28 -2.4 69 69 SSW 5 7 30.21 1023 10 16.0934 0 0
6:35 am 06:35 Clear 37 2.7 27 -2.8 67 67 SSW 6 9 30.18 1022 10 16.0934 0 0
6:55 am 06:55 Sunny 38 3.3 28 -2.1 68 68 S 6 9 30.18 1022 10 16.0934 0 0
7:15 am 07:15 Sunny 40 4.5 29 -1.8 64 64 SSW 3 6 30.18 1022 10 16.0934 0 0
7:35 am 07:35 Sunny 39 4.1 28 -2 65 65 Calm 30.18 1022 10 16.0934 0 0
7:55 am 07:55 Sunny 42 5.6 32 -0.1 67 67 SSW 8 13 30.18 1022 10 16.0934 0 0
8:15 am 08:15 Sunny 48 9 33 0.6 56 56 SW 9 15 30.15 1021 10 16.0934 0 0
8:35 am 08:35 Sunny 49 9.7 32 -0.2 50 50 SW 12 19 30.12 1020 10 16.0934 0 0
8:55 am 08:55 Sunny 51 10.7 32 0 48 48 SW 9 15 30.12 1020 10 16.0934 0 0
9:15 am 09:15 Sunny 53 11.9 31 -0.3 43 43 SW 13 20 30.09 1019 10 16.0934 0 0
9:35 am 09:35 Sunny 55 12.9 30 -0.9 39 39 SW 16 26 30.09 1019 10 16.0934 0 0
9:55 am 09:55 Sunny 56 13.5 30 -1.3 36 36 SW 14 22 30.09 1019 10 16.0934 0 0
10:15 am 10:15 Sunny 58 14.5 29 -1.5 33 33 SW 20 31 30.06 1018 10 16.0934 0 0
10:35 am 10:35 Sunny 60 15.3 29 -1.6 32 32 SSW 18 30 30.06 1018 10 16.0934 0 0
10:55 am 10:55 Sunny 60 15.4 28 -2 30 30 SSW 20 31 30.03 1017 10 16.0934 0 0
11:15 am 11:15 Sunny 61 16.1 28 -2.2 29 29 SSW 22 35 30.03 1017 10 16.0934 0 0
11:35 am 11:35 Sunny 62 16.6 28 -2 28 28 SSW 22 35 30 1016 10 16.0934 0 0
11:55 am 11:55 Sunny 63 17.2 28 -2.2 27 27 S 25 41 29.97 1015 10 16.0934 0 0
12:15 pm 12:15 Sunny 64 17.8 28 -2.3 26 26 S 22 35 29.97 1015 10 16.0934 0 0
12:35 pm 12:35 Sunny 65 18.3 28 -2.4 25 25 S 24 39 29.97 1015 10 16.0934 0 0
12:55 pm 12:55 Sunny 66 18.9 28 -2.4 24 24 S 24 39 29.94 1014 10 16.0934 0 0
1:15 pm 13:15 Sunny 67 19.3 27 -2.7 23 23 S 26 43 29.94 1014 10 16.0934 0 0
1:35 pm 13:35 Sunny 68 20 26 -3.4 20 20 SSW 22 35 29.91 1013 10 16.0934 0 0
1:55 pm 13:55 Sunny 68 20 26 -3.3 21 21 SSW 22 35 29.88 1012 10 16.0934 0 0
2:15 pm 14:15 Sunny 69 20.4 24 -4.7 18 18 SSW 30 48 29.88 1012 10 16.0934 0 0
2:35 pm 14:35 Sunny 69 20.6 24 -4.2 19 19 SSW 28 44 29.88 1012 10 16.0934 0 0
2:55 pm 14:55 Sunny 69 20.4 25 -3.8 19 19 SSW 23 37 29.88 1012 10 16.0934 0 0
3:15 pm 15:15 Sunny 69 20.6 24 -4.7 18 18 S 30 48 29.85 1011 10 16.0934 0 0
3:35 pm 15:35 Sunny 69 20.5 24 -4.6 18 18 S 24 39 29.83 1010 10 16.0934 0 0
3:55 pm 15:55 Sunny 70 20.9 21 -6.1 16 16 SSW 30 48 29.83 1010 10 16.0934 0 0
4:15 pm 16:15 Sunny 70 21 22 -5.5 16 16 S 25 41 29.8 1009 10 16.0934 0 0
4:35 pm 16:35 Sunny 68 20.2 21 -6.3 16 16 S 30 48 29.8 1009 10 16.0934 0 0
4:55 pm 16:55 Sunny 69 20.8 22 -5.3 17 17 SSW 30 48 29.8 1009 10 16.0934 0 0
5:15 pm 17:15 Sunny 69 20.5 23 -5.2 17 17 S 30 48 29.77 1008 10 16.0934 0 0
5:35 pm 17:35 Sunny 69 20.4 22 -5.3 17 17 S 23 37 29.77 1008 10 16.0934 0 0
5:55 pm 17:55 Sunny 70 21 22 -5.6 16 16 S 24 39 29.74 1007 10 16.0934 0 0
6:15 pm 18:15 Sunny 69 20.4 22 -5.7 17 17 S 26 43 29.74 1007 10 16.0934 0 0
6:35 pm 18:35 Sunny 68 20.2 22 -5.5 17 17 S 26 43 29.74 1007 10 16.0934 0 0
6:55 pm 18:55 Sunny 67 19.5 24 -4.4 20 20 S 29 46 29.71 1006 10 16.0934 0 0
7:15 pm 19:15 Sunny 67 19.4 24 -4.3 20 20 S 28 44 29.71 1006 10 16.0934 0 0
7:35 pm 19:35 Sunny 66 18.9 24 -4.4 20 20 S 24 39 29.71 1006 10 16.0934 0 0
7:55 pm 19:55 Sunny 65 18.5 25 -3.9 22 22 S 21 33 29.71 1006 10 16.0934 0 0
8:15 pm 20:15 Sunny 64 17.6 26 -3.1 24 24 S 20 31 29.74 1007 10 16.0934 0 0
8:35 pm 20:35 Clear 63 17 27 -2.9 26 26 S 20 31 29.74 1007 10 16.0934 0 0
8:55 pm 20:55 Clear 62 16.6 27 -2.6 27 27 S 17 28 29.74 1007 10 16.0934 0 0
9:15 pm 21:15 Clear 60 15.8 29 -1.8 30 30 S 13 20 29.74 1007 10 16.0934 0 0
9:35 pm 21:35 Clear 60 15.5 29 -1.5 31 31 S 14 22 29.74 1007 10 16.0934 0 0
9:55 pm 21:55 Clear 59 15 30 -1.3 33 33 S 20 31 29.74 1007 10 16.0934 0 0
10:15 pm 22:15 Clear 58 14.7 30 -1.2 34 34 SSE 17 28 29.74 1007 10 16.0934 0 0
10:35 pm 22:35 Clear 58 14.2 30 -0.9 36 36 SSE 15 24 29.71 1006 10 16.0934 0 0
10:55 pm 22:55 Clear 56 13.6 31 -0.5 38 38 SSE 16 26 29.74 1007 10 16.0934 0 0
11:15 pm 23:15 Clear 55 13 32 0 41 41 SSE 16 26 29.74 1007 10 16.0934 0 0
11:35 pm 23:35 Clear 55 12.7 33 0.6 44 44 SSE 17 28 29.74 1007 10 16.0934 0 0
11:55 pm 23:55 Clear 55 12.5 34 1.1 46 46 S 20 31 29.71 1006 10 16.0934 0 0

Powered by AerisWeather